Wind_Speed
4 4 4 3 4 5 6 7 8 9 10 11 11 11 12 12 13 13 13 12 12 12 12 13 13 14 14 14 14 14 14 13 13 14 15 14 13 12 12 13 13 13
5 4 3 4 5 7 7 8 9 10 11 12 12 13 13 13 14 14 14 14 14 14 14 15 16 16 16 15 15 15 14 13 13 14 14 13 13 13 13 13 13 13
4 3 3 5 6 7 7 8 9 10 11 12 13 14 14 14 14 15 15 15 15 15 17 18 19 19 18 17 16 15 14 14 13 13 13 13 14 13 13 13 13 13
3 3 4 5 6 6 6 7 8 9 10 11 13 14 15 15 15 15 15 15 15 17 18 19 20 20 19 17 16 14 13 12 12 12 12 13 13 13 13 14 14 15
3 3 4 4 4 5 5 6 7 9 10 11 13 13 14 15 15 16 16 14 15 18 18 19 21 20 19 17 15 14 12 11 11 12 12 13 13 14 15 16 18 18
2 2 2 2 3 3 4 5 7 9 10 12 14 14 14 15 16 17 16 15 15 17 18 20 20 19 19 17 16 14 13 13 12 13 13 14 15 16 17 19 20 21
2 1 1 1 2 3 4 5 8 10 12 14 16 16 15 16 17 18 18 17 16 17 19 20 20 18 18 17 16 15 15 15 14 14 15 16 17 19 20 21 21 21
1 1 0 0 2 4 5 8 10 12 14 15 17 17 17 17 18 19 19 18 18 18 19 19 19 19 18 17 16 16 16 16 16 16 17 18 19 21 22 22 21 19
1 1 0 1 3 5 7 10 11 13 14 16 17 18 18 18 18 19 19 18 18 18 18 18 18 18 17 16 16 16 17 17 17 17 18 19 20 22 22 21 19 18
3 1 1 2 4 7 8 10 11 12 14 15 17 18 18 19 19 19 18 18 18 18 17 17 17 17 17 16 16 16 16 17 17 18 19 20 22 22 21 20 19 18
5 3 3 3 5 7 9 10 11 12 14 16 18 18 19 19 19 18 18 18 18 18 17 17 16 16 15 15 15 16 16 16 17 19 20 22 23 22 21 20 19 19
6 6 5 4 4 6 8 10 11 12 14 16 18 19 20 19 18 18 18 18 18 18 18 16 15 14 14 14 15 15 16 17 19 20 22 23 23 22 21 21 21 21
8 8 7 6 5 6 7 9 11 12 14 16 17 18 19 19 19 18 18 18 18 18 18 16 15 14 14 15 16 17 18 19 21 22 23 23 23 22 22 22 23 23
9 10 10 9 9 9 9 10 11 12 13 15 16 17 19 19 19 19 19 19 19 18 18 17 15 15 15 16 17 19 20 21 22 23 23 23 23 23 23 24 24 24
11 11 12 12 13 13 13 12 13 14 14 15 16 18 19 19 19 19 19 19 19 18 18 17 16 16 16 17 19 20 21 22 23 23 23 22 23 23 23 24 25 25
12 12 12 13 14 14 15 15 15 16 16 16 18 19 20 20 20 19 19 19 19 18 17 17 16 16 17 19 20 22 22 23 23 22 22 22 22 23 24 26 26 27
13 12 12 12 13 14 16 17 17 16 16 17 19 21 22 22 21 20 19 18 17 17 16 16 17 18 19 20 21 22 22 22 22 22 22 22 23 25 26 27 28 28
13 13 12 13 13 14 17 18 18 16 16 17 19 21 23 24 23 21 18 17 16 16 16 17 18 19 20 21 22 22 22 21 21 22 23 24 25 26 28 29 30 30
15 15 15 15 14 14 16 17 16 16 16 17 18 20 23 25 24 21 18 16 15 15 16 17 19 20 21 21 21 20 20 21 22 24 25 26 28 29 30 29 28 27
16 16 16 16 15 13 13 14 14 15 16 17 16 18 22 25 24 21 17 15 14 15 16 18 19 20 21 20 19 19 21 23 25 27 28 29 29 29 28 26 24 22
16 15 14 16 15 13 13 14 13 14 16 15 15 17 21 23 22 19 16 14 14 15 17 19 20 20 19 18 19 21 23 25 26 27 28 28 28 28 27 24 22 21
17 15 13 13 13 13 14 14 13 13 14 13 14 17 20 20 19 17 15 14 14 16 18 19 19 18 17 18 20 23 24 25 26 27 27 27 28 28 27 24 22 22
15 13 11 9 8 10 13 13 12 12 12 13 15 17 18 18 16 15 14 13 15 17 17 17 16 16 17 20 22 23 24 25 25 26 27 28 28 28 27 25 23 24
14 10 7 6 6 7 9 11 12 12 12 13 15 16 16 15 14 13 13 14 15 16 16 16 16 17 19 20 21 22 23 24 25 26 27 28 29 29 28 26 24 23
12 7 5 4 4 5 7 9 11 11 11 12 13 14 14 13 12 12 12 14 15 15 16 16 16 17 19 20 20 22 23 24 26 27 28 29 29 29 29 27 25 23
9 5 4 3 3 4 5 7 8 9 9 10 11 12 11 10 10 11 12 13 14 15 16 15 15 16 18 19 20 22 23 25 27 28 29 29 30 29 28 26 24 22
Wind_Direction
51 54 49 39 29 15 4 355 350 350 353 356 357 356 359 359 354 352 351 347 343 340 336 332 330 327 324 322 320 319 318 317 317 319 319 318 321 321 318 314 310 307
49 52 45 35 28 16 4 354 350 351 352 353 354 354 356 355 348 346 344 341 338 336 333 331 331 331 330 327 326 324 321 319 320 322 322 320 321 322 320 316 312 309
61 58 42 31 25 14 2 353 349 351 351 351 351 351 352 350 345 342 340 338 336 334 333 332 331 332 332 331 330 329 324 320 321 322 321 320 321 322 319 315 312 312
88 75 50 31 22 8 354 349 350 353 354 353 353 352 352 351 347 343 342 340 336 335 333 332 333 336 338 335 334 334 329 324 322 321 319 320 321 321 320 318 316 315
90 76 59 35 16 359 349 352 358 358 356 355 354 354 355 354 351 347 346 340 335 336 334 333 337 342 342 339 338 340 338 332 326 323 323 324 322 322 322 320 318 317
96 84 69 34 2 355 356 4 7 3 359 356 354 354 356 356 353 350 347 340 336 334 331 333 339 342 342 341 341 342 341 336 333 330 329 327 326 325 323 320 318 316
132 134 96 13 350 357 1 8 11 6 1 357 355 356 357 355 353 350 348 344 340 334 331 334 337 338 339 340 341 341 339 337 336 333 330 329 327 325 323 320 317 316
182 190 164 341 349 0 3 7 9 5 2 359 357 356 355 353 351 349 349 347 342 336 334 335 335 335 336 337 337 338 337 335 334 332 329 327 325 323 320 319 317 315
239 229 229 334 4 7 6 8 7 4 1 360 358 356 354 352 351 350 350 348 343 338 336 335 334 334 334 334 335 334 332 331 330 328 326 323 321 320 319 317 316 314
283 275 290 340 9 7 4 5 4 1 0 360 358 356 355 353 351 350 350 347 343 339 336 335 334 334 333 333 332 330 328 327 325 323 322 321 321 320 319 317 315 313
293 290 300 333 1 0 357 358 357 357 359 359 357 355 354 353 350 349 348 346 342 338 335 335 335 334 334 332 330 327 325 323 322 322 322 323 324 322 321 318 316 316
292 285 287 305 333 344 348 348 348 353 357 358 357 355 353 351 349 347 347 345 341 338 335 334 335 335 333 329 327 325 324 324 324 325 326 326 326 324 323 321 318 317
288 280 279 285 299 316 332 336 338 348 354 355 356 354 351 349 347 346 346 344 341 337 336 335 336 335 332 329 328 328 328 328 329 329 328 328 327 326 324 321 319 318
282 274 271 273 282 295 309 319 327 338 346 349 350 351 350 347 346 346 345 343 340 338 337 337 337 335 333 331 331 332 332 332 331 331 331 330 329 327 325 323 321 319
273 270 273 280 290 301 310 316 322 330 336 340 343 344 346 345 344 345 344 342 340 339 338 338 337 335 333 333 334 334 334 333 333 334 333 332 329 327 325 323 321 320
275 277 284 288 295 304 311 314 319 326 330 332 335 337 339 341 341 343 343 342 341 339 337 336 334 333 334 336 337 336 336 336 336 336 335 332 329 326 324 322 321 319
282 283 286 287 291 298 300 299 302 310 318 323 327 331 333 335 337 339 342 342 340 337 335 333 333 335 338 339 339 338 338 338 338 336 335 332 329 326 324 322 321 320
285 284 282 279 281 289 292 290 288 291 300 311 320 326 328 330 331 335 339 342 340 337 334 334 337 339 340 340 340 340 340 338 337 335 334 332 330 328 327 326 325 325
286 285 284 279 275 281 289 290 288 288 291 300 311 320 323 324 327 330 336 341 340 338 336 337 340 341 342 342 342 342 340 338 337 337 336 335 334 333 331 329 329 330
278 276 276 278 275 275 279 283 285 289 292 296 303 312 318 322 324 328 334 340 341 340 340 341 342 343 344 344 343 342 341 341 341 340 339 338 336 334 332 332 333 335
286 285 280 280 281 278 271 270 277 286 293 297 300 307 316 321 323 326 332 340 342 343 344 344 345 346 345 345 345 345 345 343 342 341 340 339 338 338 338 338 339 339
310 308 297 288 289 286 275 267 269 279 289 295 299 307 316 320 321 324 332 340 344 346 346 346 347 349 349 349 349 348 345 342 341 342 343 343 342 343 344 343 340 339
320 313 302 295 292 284 272 262 261 270 278 287 297 307 315 318 320 325 334 343 347 348 348 350 353 355 355 353 350 347 344 343 344 346 347 346 347 348 348 346 342 339
328 318 304 301 294 275 257 248 251 262 272 284 298 309 315 319 322 328 339 347 349 350 354 359 1 360 356 352 348 345 345 347 349 350 350 350 352 353 352 348 343 338
339 333 317 304 282 257 245 245 254 265 276 290 305 313 316 320 326 334 344 349 350 356 4 5 2 358 353 349 348 348 351 352 353 354 355 355 356 357 354 349 344 341
347 353 345 319 271 248 255 265 271 277 286 300 311 315 319 325 333 341 347 349 354 3 7 4 359 356 353 350 351 353 357 358 358 359 359 358 0 0 355 350 347 344
Height
3176 3176 3176 3176 3175 3175 3175 3175 3174 3174 3173 3172 3171 3170 3169 3168 3167 3166 3165 3164 3163 3162 3161 3159 3158 3157 3156 3154 3153 3152 3151 3151 3150 3148 3147 3146 3145 3144 3143 3142 3141 3140
3176 3176 3176 3176 3176 3176 3175 3175 3174 3174 3173 3172 3171 3170 3169 3168 3167 3165 3164 3163 3162 3161 3160 3158 3157 3156 3155 3153 3152 3151 3150 3149 3148 3147 3146 3145 3144 3143 3142 3141 3140 3139
3176 3176 3176 3176 3176 3176 3176 3175 3174 3173 3173 3172 3170 3169 3169 3168 3166 3165 3164 3163 3162 3160 3159 3157 3156 3155 3154 3153 3152 3150 3149 3148 3147 3146 3145 3144 3143 3142 3141 3140 3139 3138
3176 3176 3176 3176 3176 3176 3176 3175 3174 3173 3172 3171 3170 3169 3168 3167 3166 3165 3163 3162 3161 3159 3158 3156 3155 3154 3153 3152 3151 3150 3148 3147 3146 3146 3145 3144 3143 3142 3140 3139 3138 3137
3176 3176 3176 3177 3176 3176 3175 3175 3174 3173 3172 3171 3170 3169 3168 3166 3165 3164 3162 3161 3160 3159 3157 3156 3154 3153 3152 3151 3150 3149 3148 3147 3146 3145 3144 3143 3142 3141 3139 3138 3136 3135
3176 3176 3176 3176 3176 3176 3175 3174 3174 3173 3172 3171 3170 3169 3167 3166 3165 3163 3162 3161 3159 3158 3156 3155 3154 3152 3151 3149 3148 3147 3147 3146 3145 3144 3143 3142 3141 3140 3138 3137 3135 3133
3177 3176 3176 3176 3176 3175 3175 3174 3173 3173 3172 3170 3169 3168 3167 3165 3164 3163 3161 3160 3158 3157 3156 3154 3153 3152 3150 3149 3147 3147 3146 3145 3144 3143 3142 3141 3139 3138 3137 3135 3133 3132
3177 3177 3176 3176 3175 3175 3174 3174 3173 3172 3171 3170 3169 3167 3166 3165 3164 3162 3161 3159 3158 3156 3155 3153 3152 3150 3149 3148 3147 3146 3145 3144 3143 3142 3141 3140 3138 3137 3135 3133 3132 3130
3177 3177 3176 3176 3175 3175 3174 3173 3172 3171 3171 3170 3168 3167 3166 3165 3163 3162 3160 3159 3157 3155 3154 3152 3151 3149 3148 3147 3146 3145 3144 3143 3142 3141 3140 3138 3137 3135 3133 3132 3130 3128
3178 3177 3176 3176 3175 3174 3173 3172 3171 3171 3170 3169 3168 3167 3165 3164 3163 3161 3160 3158 3156 3154 3152 3151 3149 3148 3147 3147 3146 3145 3144 3142 3141 3140 3138 3137 3135 3133 3132 3130 3128 3127
3178 3177 3176 3175 3174 3173 3172 3171 3171 3170 3169 3168 3167 3166 3165 3164 3162 3160 3159 3157 3155 3153 3151 3150 3149 3148 3147 3146 3145 3144 3143 3142 3140 3139 3137 3135 3134 3132 3130 3128 3127 3126
3178 3177 3175 3174 3173 3172 3172 3171 3170 3169 3169 3167 3166 3165 3164 3163 3161 3159 3158 3156 3154 3152 3151 3150 3149 3148 3147 3146 3145 3143 3142 3140 3139 3137 3135 3134 3132 3130 3128 3127 3125 3124
3177 3176 3175 3173 3172 3172 3171 3170 3170 3169 3168 3167 3166 3165 3163 3162 3160 3159 3157 3155 3153 3152 3150 3149 3148 3147 3146 3145 3144 3142 3141 3139 3137 3136 3134 3132 3130 3128 3126 3125 3123 3121
3176 3175 3173 3172 3172 3171 3171 3170 3170 3169 3168 3166 3165 3164 3163 3161 3160 3158 3156 3154 3153 3151 3150 3149 3148 3146 3145 3144 3143 3141 3140 3138 3136 3134 3132 3130 3128 3126 3125 3123 3121 3119
3174 3173 3173 3172 3172 3172 3172 3171 3170 3170 3168 3166 3165 3164 3162 3161 3159 3157 3155 3154 3152 3151 3149 3148 3147 3146 3144 3143 3142 3140 3138 3136 3135 3133 3131 3129 3127 3125 3123 3121 3119 3117
3173 3173 3173 3173 3172 3172 3172 3171 3170 3169 3168 3167 3165 3164 3163 3161 3159 3157 3155 3153 3151 3150 3149 3148 3147 3145 3144 3142 3141 3139 3137 3135 3133 3132 3130 3128 3126 3124 3121 3119 3117 3115
3172 3172 3172 3171 3171 3171 3170 3170 3169 3169 3168 3167 3166 3164 3163 3161 3158 3156 3154 3152 3151 3150 3148 3147 3146 3145 3143 3141 3140 3138 3136 3134 3132 3131 3129 3127 3124 3122 3120 3117 3115 3112
3171 3170 3170 3170 3170 3169 3169 3169 3168 3168 3167 3166 3165 3164 3162 3161 3158 3156 3154 3152 3150 3149 3148 3147 3145 3144 3142 3140 3139 3137 3135 3133 3131 3129 3127 3125 3123 3120 3117 3115 3112 3109
3169 3168 3168 3168 3168 3168 3168 3167 3167 3167 3166 3165 3164 3163 3162 3160 3158 3156 3154 3152 3150 3148 3147 3146 3145 3143 3141 3140 3138 3136 3134 3132 3130 3128 3126 3123 3120 3117 3114 3112 3109 3106
3166 3165 3165 3165 3166 3166 3166 3166 3166 3166 3165 3164 3164 3163 3161 3160 3158 3156 3154 3151 3149 3148 3147 3145 3144 3142 3141 3139 3137 3135 3133 3131 3129 3126 3123 3121 3118 3115 3112 3109 3106 3104
3163 3164 3164 3164 3164 3164 3164 3164 3165 3164 3164 3164 3163 3162 3160 3159 3158 3156 3153 3151 3149 3147 3146 3145 3143 3142 3140 3139 3137 3135 3132 3130 3128 3125 3122 3119 3116 3113 3110 3107 3104 3102
3164 3164 3163 3163 3163 3164 3164 3164 3164 3164 3163 3163 3162 3161 3160 3158 3157 3155 3152 3150 3148 3147 3146 3144 3143 3141 3140 3138 3136 3134 3132 3129 3127 3124 3121 3118 3115 3111 3108 3105 3102 3099
3163 3162 3162 3162 3162 3162 3163 3163 3163 3163 3162 3162 3161 3160 3159 3157 3156 3154 3151 3149 3148 3146 3145 3144 3143 3141 3139 3138 3136 3134 3131 3129 3126 3123 3120 3117 3113 3110 3106 3103 3100 3098
3162 3161 3161 3160 3160 3160 3161 3162 3162 3161 3161 3161 3160 3160 3158 3157 3155 3152 3150 3149 3147 3146 3145 3143 3142 3141 3139 3137 3136 3133 3131 3128 3125 3122 3119 3115 3112 3108 3105 3102 3100 3097
3161 3160 3160 3160 3159 3160 3160 3161 3161 3161 3161 3160 3160 3159 3157 3155 3153 3151 3149 3148 3147 3146 3144 3143 3142 3141 3139 3137 3135 3133 3130 3127 3124 3121 3117 3114 3111 3107 3104 3101 3099 3097
3162 3160 3160 3160 3160 3160 3160 3161 3161 3161 3161 3160 3159 3158 3156 3154 3152 3150 3149 3148 3147 3145 3144 3143 3142 3141 3139 3137 3135 3133 3130 3126 3123 3120 3116 3113 3110 3107 3104 3101 3098 3096